Meteo pe oră la Bolshoe Galcevo

Astăzi, 9 Mai, Duminică

Timp Temperatura Precipitaţii Vânt Presiune Umiditate
00:00 -1°C° 0 mm 4 m/s 741 mmHg 80%
01:00 -1°C° 0 mm 4 m/s 742 mmHg 82%
02:00 -2°C° 0 mm 4 m/s 742 mmHg 85%
03:00 -2°C° 0 mm 4 m/s 743 mmHg 84%
04:00 -2°C° 0 mm 4 m/s 743 mmHg 84%
05:00 -2°C° 0 mm 4 m/s 744 mmHg 83%
06:00 0°C° 0 mm 4 m/s 744 mmHg 75%
07:00 +1°C° 0 mm 4 m/s 745 mmHg 67%
08:00 +3°C° 0 mm 5 m/s 745 mmHg 60%
09:00 +6°C° 0 mm 5 m/s 746 mmHg 55%
10:00 +7°C° 0 mm 5 m/s 746 mmHg 51%
11:00 +8°C° 0 mm 5 m/s 746 mmHg 46%
12:00 +8°C° 0 mm 5 m/s 747 mmHg 45%
13:00 +9°C° 0 mm 5 m/s 747 mmHg 43%
14:00 +11°C° 0 mm 4 m/s 747 mmHg 41%
15:00 +11°C° 0 mm 4 m/s 747 mmHg 42%
16:00 +11°C° 0 mm 3 m/s 747 mmHg 43%
17:00 +12°C° 0 mm 2 m/s 747 mmHg 44%
18:00 +9°C° 0 mm 2 m/s 748 mmHg 49%
19:00 +7°C° 0 mm 2 m/s 748 mmHg 53%
20:00 +7°C° 0 mm 1 m/s 749 mmHg 57%
21:00 +5°C° 0 mm 2 m/s 749 mmHg 58%
22:00 +5°C° 0 mm 2 m/s 749 mmHg 58%
23:00 +4°C° 0 mm 2 m/s 749 mmHg 59%

Mâine, 10 Mai, Luni

Timp Temperatura Precipitaţii Vânt Presiune Umiditate
00:00 +4°C° 0 mm 2 m/s 750 mmHg 61%
01:00 +3°C° 0 mm 3 m/s 750 mmHg 63%
02:00 +2°C° 0 mm 3 m/s 750 mmHg 65%
03:00 +2°C° 0 mm 3 m/s 750 mmHg 67%
04:00 +2°C° 0 mm 3 m/s 750 mmHg 70%
05:00 +2°C° 0 mm 3 m/s 750 mmHg 72%
06:00 +4°C° 0 mm 3 m/s 751 mmHg 67%
07:00 +6°C° 0 mm 4 m/s 751 mmHg 63%
08:00 +8°C° 0 mm 4 m/s 751 mmHg 59%
09:00 +11°C° 0 mm 4 m/s 751 mmHg 57%
10:00 +12°C° 0 mm 4 m/s 751 mmHg 54%
11:00 +13°C° 0 mm 4 m/s 751 mmHg 51%
12:00 +14°C° 0 mm 4 m/s 751 mmHg 51%
13:00 +14°C° 0 mm 4 m/s 751 mmHg 50%
14:00 +16°C° 0 mm 3 m/s 751 mmHg 49%
15:00 +16°C° 0 mm 3 m/s 751 mmHg 51%
16:00 +16°C° 0 mm 3 m/s 750 mmHg 53%
17:00 +16°C° 0 mm 2 m/s 750 mmHg 55%
18:00 +13°C° 0 mm 3 m/s 750 mmHg 61%
19:00 +11°C° 0 mm 3 m/s 751 mmHg 67%
20:00 +9°C° 0 mm 3 m/s 751 mmHg 73%
21:00 +9°C° 0 mm 3 m/s 751 mmHg 72%
22:00 +8°C° 0 mm 3 m/s 751 mmHg 72%
23:00 +7°C° 0 mm 3 m/s 751 mmHg 71%

Poimâine, 11 Mai, Marţi

Timp Temperatura Precipitaţii Vânt Presiune Umiditate
00:00 +7°C° 0 mm 3 m/s 751 mmHg 71%
01:00 +5°C° 0 mm 3 m/s 751 mmHg 71%
02:00 +6°C° 0 mm 2 m/s 751 mmHg 70%
03:00 +6°C° 0 mm 2 m/s 751 mmHg 72%
04:00 +6°C° 0 mm 2 m/s 751 mmHg 74%
05:00 +5°C° 0 mm 2 m/s 751 mmHg 76%
06:00 +7°C° 0 mm 3 m/s 751 mmHg 70%
07:00 +9°C° 0 mm 3 m/s 751 mmHg 65%
08:00 +11°C° 0 mm 4 m/s 751 mmHg 59%
09:00 +12°C° 0 mm 4 m/s 751 mmHg 55%
10:00 +14°C° 0 mm 4 m/s 751 mmHg 51%
11:00 +15°C° 0 mm 4 m/s 750 mmHg 46%
12:00 +17°C° 0 mm 4 m/s 750 mmHg 46%
13:00 +17°C° 0 mm 4 m/s 750 mmHg 45%
14:00 +18°C° 0 mm 4 m/s 749 mmHg 45%
15:00 +18°C° 0 mm 4 m/s 749 mmHg 50%
16:00 +18°C° 0 mm 3 m/s 749 mmHg 55%
17:00 +18°C° 0 mm 3 m/s 749 mmHg 59%
18:00 +16°C° 0 mm 3 m/s 749 mmHg 67%
19:00 +14°C° 0 mm 3 m/s 749 mmHg 74%
20:00 +12°C° 0 mm 3 m/s 748 mmHg 82%
21:00 +11°C° 0 mm 3 m/s 748 mmHg 85%
22:00 +11°C° 0 mm 3 m/s 748 mmHg 88%
23:00 +10°C° 0 mm 3 m/s 748 mmHg 91%

12 Mai, Miercuri

Timp Temperatura Precipitaţii Vânt Presiune Umiditate
00:00 +10°C° 0 mm 3 m/s 748 mmHg 93%
01:00 +10°C° 0 mm 3 m/s 748 mmHg 94%
02:00 +10°C° 0 mm 3 m/s 748 mmHg 96%
03:00 +9°C° 0 mm 3 m/s 748 mmHg 95%
04:00 +9°C° 0 mm 3 m/s 748 mmHg 95%
05:00 +9°C° 0 mm 2 m/s 748 mmHg 95%
06:00 +10°C° 0 mm 3 m/s 748 mmHg 88%
07:00 +11°C° 0 mm 4 m/s 748 mmHg 80%
08:00 +12°C° 0 mm 4 m/s 748 mmHg 73%
09:00 +10°C° 0.3 mm 4 m/s 747 mmHg 79%
10:00 +9°C° 0.3 mm 3 m/s 747 mmHg 84%
11:00 +8°C° 0.3 mm 3 m/s 747 mmHg 90%
12:00 +9°C° 0.3 mm 3 m/s 747 mmHg 86%
13:00 +10°C° 0.3 mm 3 m/s 746 mmHg 82%
14:00 +11°C° 0.3 mm 3 m/s 746 mmHg 78%
15:00 +11°C° 0 mm 3 m/s 745 mmHg 77%
16:00 +12°C° 0 mm 3 m/s 745 mmHg 75%
17:00 +12°C° 0 mm 4 m/s 744 mmHg 74%
18:00 +11°C° 0.1 mm 4 m/s 744 mmHg 80%
19:00 +10°C° 0.1 mm 4 m/s 744 mmHg 86%
20:00 +8°C° 0.1 mm 4 m/s 744 mmHg 92%
21:00 +8°C° 0.1 mm 4 m/s 743 mmHg 93%
22:00 +9°C° 0.1 mm 3 m/s 743 mmHg 94%
23:00 +9°C° 0.1 mm 3 m/s 742 mmHg 95%

13 Mai, Joi

Timp Temperatura Precipitaţii Vânt Presiune Umiditate
00:00 +8°C° 0.3 mm 4 m/s 742 mmHg 95%
01:00 +8°C° 0.3 mm 4 m/s 741 mmHg 94%
02:00 +8°C° 0.3 mm 5 m/s 740 mmHg 94%
03:00 +8°C° 0.6 mm 5 m/s 740 mmHg 93%
04:00 +8°C° 0.6 mm 6 m/s 740 mmHg 92%
05:00 +7°C° 0.6 mm 6 m/s 740 mmHg 91%
06:00 +7°C° 0.2 mm 6 m/s 740 mmHg 90%
07:00 +6°C° 0.2 mm 7 m/s 740 mmHg 88%
08:00 +6°C° 0.2 mm 7 m/s 740 mmHg 87%
09:00 +8°C° 0.1 mm 7 m/s 740 mmHg 82%
10:00 +9°C° 0.1 mm 7 m/s 741 mmHg 78%
11:00 +10°C° 0.1 mm 8 m/s 741 mmHg 74%
12:00 +11°C° 0.1 mm 7 m/s 741 mmHg 71%
13:00 +11°C° 0.1 mm 7 m/s 741 mmHg 67%
14:00 +12°C° 0.1 mm 7 m/s 741 mmHg 64%
15:00 +13°C° 0 mm 6 m/s 741 mmHg 68%
16:00 +11°C° 0 mm 6 m/s 741 mmHg 73%
17:00 +12°C° 0 mm 5 m/s 741 mmHg 77%
18:00 +11°C° 0.2 mm 4 m/s 741 mmHg 82%
19:00 +10°C° 0.2 mm 3 m/s 741 mmHg 87%
20:00 +9°C° 0.2 mm 2 m/s 741 mmHg 92%
21:00 +9°C° 0.6 mm 3 m/s 741 mmHg 94%
22:00 +9°C° 0.6 mm 3 m/s 740 mmHg 96%
23:00 +10°C° 0.6 mm 3 m/s 740 mmHg 98%

14 Mai, Vineri

Timp Temperatura Precipitaţii Vânt Presiune Umiditate
00:00 +10°C° 0.7 mm 3 m/s 739 mmHg 98%
01:00 +11°C° 0.7 mm 3 m/s 739 mmHg 98%
02:00 +11°C° 0.7 mm 3 m/s 738 mmHg 98%
03:00 +11°C° 0.3 mm 3 m/s 738 mmHg 98%
04:00 +11°C° 0.3 mm 3 m/s 738 mmHg 98%
05:00 +12°C° 0.3 mm 3 m/s 738 mmHg 98%
06:00 +12°C° 0.4 mm 3 m/s 738 mmHg 97%
07:00 +12°C° 0.4 mm 3 m/s 737 mmHg 97%
08:00 +12°C° 0.4 mm 3 m/s 737 mmHg 97%
09:00 +13°C° 0.1 mm 3 m/s 737 mmHg 91%
10:00 +15°C° 0.1 mm 4 m/s 738 mmHg 85%
11:00 +17°C° 0.1 mm 4 m/s 738 mmHg 79%
12:00 +17°C° 0.4 mm 4 m/s 738 mmHg 78%
13:00 +17°C° 0.4 mm 4 m/s 738 mmHg 78%
14:00 +17°C° 0.4 mm 4 m/s 738 mmHg 78%
15:00 +17°C° 0.3 mm 3 m/s 738 mmHg 78%
16:00 +18°C° 0.3 mm 3 m/s 738 mmHg 77%
17:00 +18°C° 0.3 mm 3 m/s 738 mmHg 76%
18:00 +17°C° 0.5 mm 3 m/s 738 mmHg 81%
19:00 +14°C° 0.5 mm 3 m/s 738 mmHg 86%
20:00 +13°C° 0.5 mm 3 m/s 738 mmHg 91%
21:00 +13°C° 0 mm 2 m/s 738 mmHg 91%
22:00 +13°C° 0 mm 2 m/s 738 mmHg 92%
23:00 +12°C° 0 mm 2 m/s 738 mmHg 92%
Arată mai mult

Formular de consimțământ

Meteoprog și furnizorii noștri de servicii pot stoca și accesa date personale, precum cookies, identificatori de dispozitiv sau alte tehnologii similare pe dispozitivul dumneavoastră și procesa astfel de date pentru a personaliza conținutul și reclamele, dar și pentru a oferi caracteristici de social media și pentru a analiza traficul.

  • Stocarea și/sau accesarea informațiilor pe dispozitivul dumneavoastră

    Cookies, identificatori de dispozitiv sau alte informații pot fi stocate sau accesate pe dispozitiv în scopurile indicate mai sus.

  • Reclame și conținut personalizat, evaluarea reclamelor și a conținutului, informații despre audiențe și dezvoltarea produselor

    Reclamele și conținutul pot fi personalizate pe baza unui profil. Pot fi adăugate date suplimentare pentru a personaliza mai bine reclamele și conținutul. Performanța reclamelor și conținutului poate fi măsurată. Pot fi obținute informații despre utilizatorii care au văzut reclamele și conținutul. Aceste date pot fi utilizate pentru a dezvolta sau îmbunătăți experiența utilizatorilor, sistemele și software-ul.

Dând clic pe ‘Sunt de acord’, permiteți utilizarea cookie-urilor menționate, a identificatorilor de dispozitiv, balizelor web sau altor tehnologii similare. Setările pot fi modificate din browser-ul dispozitivului dumneavoastră.

În anumite scopuri, interesele legitime pot prima asupra consimțământului. Puteți citi mai multe informații în acest sens în Politica privind Confidențialitatea Datelor și Cookie.